Location: Huesca
(42.1318°N, 0.4078°W)
Time: 21:19:00
(UTC+02:00)

DIWATA 2B (PO-101) - Pass Details

Date: 30 April 2024
Orbit: 575 x 589 km, 98.1° (Epoch: 20 May)

Event Time Altitude Azimuth Distance (km) Brightness Sun altitude
Rises 04:16:37 0° 125° (SE) 2,813 ? -24.8°
Reaches altitude 10° 04:19:22 10° 106° (ESE) 1,916 ? -24.4°
Maximum altitude 04:22:05 17° 65° (ENE) 1,506 ? -24.1°
Drops below altitude 10° 04:24:48 10° 24° (NNE) 1,921 ? -23.8°
Sets 04:27:33 0° 4° (N) 2,824 ? -23.5°
